Location: El Escondido
(32.5691°N, 116.4250°W)
Time: 23:24:37
(UTC+00:00)

ISS - Pass Details

Date: 25 June 2024
Orbit: 409 x 423 km, 51.6° (Epoch: 23 July)

Event Time Altitude Azimuth Distance (km) Brightness Sun altitude
Exits shadow 11:02:25 13° 301° (WNW) 1,299 -1.4 -17.4°
Maximum altitude 11:03:40 16° 327° (NNW) 1,189 -1.4 -17.2°
Drops below altitude 10° 11:05:47 10° 7° (N) 1,489 -0.3 -16.9°
Sets 11:08:31 0° 30° (NNE) 2,359 1.5 -16.5°
